Regional Weather Roundup
Issued by NWS

Home | Current Version | Previous Version | Graphics & Text | Print | Product List | Glossary Off
Versions: 1 2 3 4 5 6 7 8 9 10 11 12 13 14 15 16 17 18 19 20 21 22 23 24 25 26 27 28 29 30 31 32 33 34 35 36 37 38 39 40 41 42 43 44 45 46 47 48 49 50

000
ASUS43 KDTX 282210
RWRMI
MICHIGAN HOURLY REGIONAL WEATHER ROUNDUP
NATIONAL WEATHER SERVICE DETROIT/PONTIAC MI
500 PM EST FRI NOV 28 2014

NOTE: "FAIR" INDICATES FEW OR NO CLOUDS BELOW 12,000 FEET WITH NO
SIGNIFICANT WEATHER AND/OR OBSTRUCTION TO VISIBILITY.

MIZ047>049-052>055-059>063-066>070-074>076-081>083-282300-
SOUTHEAST LOWER MICHIGAN

CITY           SKY/WX    TMP DP  RH WIND       PRES   REMARKS
ADRIAN         CLOUDY    26  21  81 S9        30.16F WCI  17
ALMA           CLOUDY    24  21  90 SE5       30.12F WCI  18
ANN ARBOR      LGT SNOW  25  19  78 S8        30.16F WCI  16
BAD AXE        FLURRIES  24  17  74 S8        30.17S WCI  15
CARO           CLOUDY    25  18  74 SE6       30.15F WCI  18
DETROIT CITY   CLOUDY    28  17  63 S9        30.19F WCI  19
DETROIT        LGT SNOW  26  19  74 S7        30.19F WCI  18
FLINT          LGT SNOW  25  21  85 SE8       30.15F FOG     WCI  16
GROSSE ILE     LGT SNOW  27  19  74 S10       30.18F WCI  17
HILLSDALE      CLOUDY    26  20  80 S6        30.10F WCI  19
HOWELL         CLOUDY    24  21  88 SE8       30.13F WCI  15

CITY           SKY/WX    TMP DP  RH WIND       PRES   REMARKS
JACKSON        CLOUDY    25  19  78 S9        30.11F WCI  15
LAMBERTVILLE   FLURRIES  28  23  80 S3        30.19S
LANSING        CLOUDY    25  17  72 S13       30.11F WCI  14
LAPEER         FLURRIES  25  18  74 SW8       30.16S WCI  16
MASON          CLOUDY    26  20  80 S12       30.11F WCI  15
MONROE         CLOUDY    27  21  80 S8        30.17F WCI  18
MT. CLEMENS    FLURRIES  26  17  69 S10       30.17S WCI  16
PONTIAC        LGT SNOW  24  19  81 S7        30.14F WCI  16
PORT HOPE        N/A     24  12  60 S3        30.16S
PORT HURON     CLOUDY    25  16  68 S6        30.19S WCI  18
TRI CITIES     FLURRIES  26  20  77 SE8       30.14F WCI  18
TROY           LGT SNOW  28  19  68 S7        30.19F WCI  21
SAGINAW HB     FLURRIES  27  23  86 SW7       30.14F WCI  19
$$
MIZ043>046-050>051-056>058-064>065-071>073-077>080-282300-
SOUTHWEST LOWER MICHIGAN

CITY           SKY/WX    TMP DP  RH WIND       PRES   REMARKS
BATTLE CREEK   CLOUDY    27  18  69 SE10      30.08F WCI  17
BENTON HARBOR  CLOUDY    27  18  69 SE13      30.05S WCI  16
BIG RAPIDS     FLURRIES  24  20  87 SE7       30.05F WCI  15
COLDWATER      CLOUDY    28  21  75 SE6       30.09F WCI  22
FREMONT        CLOUDY    24  17  74 SE9       30.04F WCI  14
HOLLAND        CLOUDY    27  18  69 SE10      30.05F WCI  17
GRAND RAPIDS   CLOUDY    25  18  74 SE13      30.08F WCI  14
IONIA          CLOUDY    26  19  76 S12       30.09F WCI  15
KALAMAZOO      CLOUDY    27  18  69 SE7       30.08F WCI  19
LUDINGTON      CLOUDY    24  20  83 SE13      30.03F WCI  13
MARSHALL       CLOUDY    25  18  76 S7        30.09F WCI  17
MOUNT PLEASANT LGT SNOW  25  21  85 SE7       30.10F WCI  17
MUSKEGON       CLOUDY    26  17  68 SE14      30.04F WCI  14
SOUTH HAVEN    CLOUDY    28  19  68 SE8       30.05S WCI  20
$$
MIZ016>042-282300-
NORTHERN LOWER MICHIGAN

CITY           SKY/WX    TMP DP  RH WIND       PRES   REMARKS
ALPENA         CLOUDY    22  15  75 S7        30.13F WCI  13
BEAVER ISLAND  LGT SNOW  25  23  93 CALM      30.04F
BELLAIRE       LGT SNOW  24  19  83 SE6       30.08F WCI  17
CADILLAC       LGT SNOW  22  19  87 SE7       30.02F WCI  13
CHARLEVOIX     LGT SNOW  23  20  90 SE8       30.09F WCI  13
FRANKFORT      LGT SNOW  25  22  90 SE8       30.03F WCI  16
GAYLORD        LGT SNOW  20  16  84 SE7       30.05S FOG     WCI  11
GRAYLING       FLURRIES  21  17  86 SE7       30.07F WCI  12
HARBOR SPRINGS CLOUDY    23  17  77 SE5       30.07S WCI  17
HOUGHTON LAKE  FLURRIES  21  16  81 SE6       30.07F WCI  13
MANISTEE       CLOUDY    25  21  86 SE7       30.03F WCI  17
OSCODA         CLOUDY    23  16  73 S5        30.15S WCI  17
PELLSTON       CLOUDY    23  16  74 SE6       30.07F WCI  16
ROGERS CITY    CLOUDY    23  18  81 S6        30.12F WCI  15
TRAVERSE CITY  LGT SNOW  25  18  74 SE8       30.05F WCI  16
$$
MIZ007>008-015-282300-
EASTERN UPPER MICHIGAN

CITY           SKY/WX    TMP DP  RH WIND       PRES   REMARKS
KINROSS        CLOUDY    18  16  93 E6        30.07F WCI   9
MACKINAC ISLAN CLOUDY    24  18  77 S7        30.06F WCI  16
NEWBERRY       LGT SNOW  18  15  88 CALM      30.04F
S. S. MARIE    FLURRIES  17  13  84 SE6       30.08F WCI   9
MUNISING         N/A     21  13  71 S5        30.03F WCI  15
$$
MIZ004>006-011>014-085-282300-
CENTRAL UPPER MICHIGAN

CITY           SKY/WX    TMP DP  RH WIND       PRES   REMARKS
MANISTIQUE     LGT SNOW  20  17  89 E3        30.04S
ESCANABA       CLOUDY    19  14  79 N3        30.01F
MENOMINEE      CLOUDY    21  19  93 E6        29.98F WCI  14
SAWYER-GWINN   CLOUDY    16  12  86 S7        29.97F WCI   6
$$
MIZ001>003-009>011-084-282300-
WESTERN UPPER MICHIGAN

CITY           SKY/WX    TMP DP  RH WIND       PRES   REMARKS
IRON MOUNTAIN  LGT SNOW  14   9  80 E5        29.96S VSB 1   WCI   6
HOUGHTON       CLOUDY    16   6  65 E3        29.95F
COPPER HARBOR    N/A     20  10  65 SW5       29.99F WCI  13
IRONWOOD       CLOUDY    16  10  79 SE8       29.87F WCI   5
$$

ABBREVIATIONS USED IN REMARKS
   TC - TEMPERATURE IN CELSIUS
  WCI - WIND CHILL INDEX
   HX - HEAT INDEX
  VSB - VISIBILITY




USA.gov is the U.S. government's official web portal to all federal, state and local government web resources and services.